This demonstration page uses our WeatherBlox Daily Observations layout. Learn more.

Left ArrowRight Arrow

39.92423, -83.80882

Hourly Observations for June 3, 2022

Temp ( °F °C ) Dew Point ( °F °C ) Humidity (%) Winds ( mph kmh ) Pressure ( in mb ) Visibility ( mi km ) Precip ( " mm )
12:56 am 00:56 Clear 59 15 N/A N/A Calm 29.91 1013 10 16 0.01 0.25
1:56 am 01:56 Clear 59 15 N/A N/A NNW 6 9 29.91 1013 10 16 0.00 0.00
2:56 am 02:56 Clear 59 15 55 12.8 87 87 N 5 7 29.91 1013 10 16 0.00 0.00
3:56 am 03:56 Clear 56 13.3 56 13.3 100 100 Calm 29.90 1013 10 16 0.00 0.00
4:56 am 04:56 Mostly Clear 54 12 N/A N/A Calm 29.92 1013 10 16 0.00 0.00
5:56 am 05:56 Partly Cloudy N/A N/A N/A Calm N/A 10 16 0.00 0.00
6:56 am 06:56 Mostly Sunny 54 12 N/A N/A Calm 29.95 1014 10 16 0.00 0.00
7:56 am 07:56 Sunny 60 15.6 58 14.4 93 93 Calm 29.96 1014 10 16 0.00 0.00
8:56 am 08:56 Sunny 65 18.3 54 12.2 68 68 WSW 3 6 29.96 1015 10 16 0.00 0.00
9:56 am 09:56 Sunny 70 21.1 47 8.3 44 44 NNW 3 6 29.96 1015 10 16 0.00 0.00
10:56 am 10:56 Sunny 72 22.2 47 8.3 41 41 W 8 13 29.96 1015 10 16 0.00 0.00
11:56 am 11:56 Sunny 73 22.8 45 7.2 37 37 NW 14 22 29.96 1015 10 16 0.00 0.00
12:56 pm 12:56 Sunny 75 23.9 46 7.8 36 36 WNW 7 11 29.96 1015 10 16 0.00 0.00
1:56 pm 13:56 Sunny 76 24.4 46 7.8 35 35 NW 9 15 29.95 1014 10 16 0.00 0.00
2:56 pm 14:56 Sunny 78 25.6 44 6.7 30 30 VRB 6 9 29.94 1014 10 16 0.00 0.00
3:56 pm 15:56 Partly Cloudy 79 26.1 41 5 26 26 NW 5 7 29.93 1014 10 16 0.00 0.00
4:56 pm 16:56 Mostly Sunny 80 26.7 44 6.7 28 28 W 9 15 29.92 1013 10 16 0.00 0.00
5:56 pm 17:56 Mostly Sunny 79 26.1 42 5.6 27 27 W 5 7 29.87 1011 10 16 0.00 0.00
6:56 pm 18:56 Partly Cloudy 78 25.6 43 6.1 29 29 WSW 9 15 29.91 1013 10 16 0.00 0.00
7:56 pm 19:56 Mostly Sunny 76 24.4 47 8.3 36 36 WSW 7 11 29.91 1013 10 16 0.00 0.00
8:56 pm 20:56 Sunny 70 21.1 48 8.9 46 46 SSW 6 9 29.91 1013 10 16 0.00 0.00
9:56 pm 21:56 Clear 65 18.3 51 10.6 61 61 SW 7 11 29.92 1013 10 16 0.00 0.00
10:56 pm 22:56 Clear 64 17.8 50 10 60 60 SSW 5 7 29.93 1014 10 16 0.00 0.00
11:56 pm 23:56 Clear 63 17.2 49 9.4 60 60 Calm 29.95 1014 10 16 0.00 0.00

Powered by AerisWeather